Year,Month,Day,Hour,Minute,Value (Times are PST for temperature in C)
2013,04,26,00,00,5.10
2013,04,26,00,01,5.10
2013,04,26,00,02,4.60
2013,04,26,00,03,4.60
2013,04,26,00,04,4.60
2013,04,26,00,05,4.60
2013,04,26,00,06,4.60
2013,04,26,00,07,4.60
2013,04,26,00,08,4.60
2013,04,26,00,09,4.60
2013,04,26,00,10,4.60
2013,04,26,00,11,4.60
2013,04,26,00,12,4.60
2013,04,26,00,13,4.60
2013,04,26,00,14,4.60
2013,04,26,00,15,4.60
2013,04,26,00,16,4.50
2013,04,26,00,17,4.50
2013,04,26,00,18,4.50
2013,04,26,00,19,4.50
2013,04,26,00,20,4.50
2013,04,26,00,21,4.50
2013,04,26,00,22,4.50
2013,04,26,00,23,4.50
2013,04,26,00,24,4.50
2013,04,26,00,25,4.50
2013,04,26,00,26,4.50
2013,04,26,00,27,4.50
2013,04,26,00,28,4.50
2013,04,26,00,29,4.50
2013,04,26,00,30,4.50
2013,04,26,00,32,4.40
2013,04,26,00,33,4.40
2013,04,26,00,34,4.40
2013,04,26,00,35,4.40
2013,04,26,00,36,4.40
2013,04,26,00,37,4.40
2013,04,26,00,38,4.40
2013,04,26,00,39,4.40
2013,04,26,00,40,4.40
2013,04,26,00,41,4.40
2013,04,26,00,42,4.40
2013,04,26,00,43,4.40
2013,04,26,00,44,4.40
2013,04,26,00,45,4.40
2013,04,26,00,46,3.90
2013,04,26,00,47,3.90
2013,04,26,00,48,3.90
2013,04,26,00,49,3.90
2013,04,26,00,50,3.90
2013,04,26,00,51,3.90
2013,04,26,00,52,3.90
2013,04,26,00,53,3.90
2013,04,26,00,54,3.90
2013,04,26,00,55,3.90
2013,04,26,00,56,3.90
2013,04,26,00,57,3.90
2013,04,26,00,58,3.90
2013,04,26,00,59,3.90
2013,04,26,01,00,3.90
2013,04,26,01,01,3.90
2013,04,26,01,02,3.90
2013,04,26,01,03,3.90
2013,04,26,01,04,3.90
2013,04,26,01,05,3.90
2013,04,26,01,06,3.90
2013,04,26,01,07,3.90
2013,04,26,01,08,3.90
2013,04,26,01,09,3.90
2013,04,26,01,10,3.90
2013,04,26,01,11,3.90
2013,04,26,01,12,3.90
2013,04,26,01,13,3.90
2013,04,26,01,14,3.90
2013,04,26,01,15,3.90
2013,04,26,01,16,3.90
2013,04,26,01,17,3.90
2013,04,26,01,18,3.90
2013,04,26,01,19,3.90
2013,04,26,01,20,3.90
2013,04,26,01,21,3.90
2013,04,26,01,22,3.90
2013,04,26,01,23,3.90
2013,04,26,01,24,3.90
2013,04,26,01,25,3.90
2013,04,26,01,26,3.90
2013,04,26,01,27,3.90
2013,04,26,01,28,3.90
2013,04,26,01,29,3.90
2013,04,26,01,30,3.90
2013,04,26,01,31,4.10
2013,04,26,01,32,4.10
2013,04,26,01,33,4.10
2013,04,26,01,34,4.10
2013,04,26,01,35,4.10
2013,04,26,01,36,4.10
2013,04,26,01,37,4.10
2013,04,26,01,38,4.10
2013,04,26,01,39,4.10
2013,04,26,01,40,4.10
2013,04,26,01,41,4.10
2013,04,26,01,42,4.10
2013,04,26,01,43,4.10
2013,04,26,01,44,4.10
2013,04,26,01,45,4.10
2013,04,26,01,46,4.40
2013,04,26,01,47,4.40
2013,04,26,01,48,4.40
2013,04,26,01,49,4.40
2013,04,26,01,50,4.40
2013,04,26,01,51,4.40
2013,04,26,01,52,4.40
2013,04,26,01,53,4.40
2013,04,26,01,54,4.40
2013,04,26,01,55,4.40
2013,04,26,01,56,4.40
2013,04,26,01,57,4.40
2013,04,26,01,58,4.40
2013,04,26,01,59,4.40
2013,04,26,02,00,4.40
2013,04,26,02,01,3.90
2013,04,26,02,02,3.90
2013,04,26,02,03,3.90
2013,04,26,02,04,3.90
2013,04,26,02,05,3.90
2013,04,26,02,06,3.90
2013,04,26,02,07,3.90
2013,04,26,02,08,3.90
2013,04,26,02,09,3.90
2013,04,26,02,10,3.90
2013,04,26,02,11,3.90
2013,04,26,02,12,3.90
2013,04,26,02,13,3.90
2013,04,26,02,14,3.90
2013,04,26,02,15,3.90
2013,04,26,02,16,3.90
2013,04,26,02,17,3.90
2013,04,26,02,18,3.90
2013,04,26,02,19,3.90
2013,04,26,02,20,3.90
2013,04,26,02,21,3.90
2013,04,26,02,22,3.90
2013,04,26,02,23,3.90
2013,04,26,02,24,3.90
2013,04,26,02,25,3.90
2013,04,26,02,26,3.90
2013,04,26,02,27,3.90
2013,04,26,02,28,3.90
2013,04,26,02,29,3.90
2013,04,26,02,30,3.90
2013,04,26,02,31,4.60
2013,04,26,02,32,4.60
2013,04,26,02,33,4.60
2013,04,26,02,34,4.60
2013,04,26,02,35,4.60
2013,04,26,02,36,4.60
2013,04,26,02,37,4.60
2013,04,26,02,38,4.60
2013,04,26,02,39,4.60
2013,04,26,02,40,4.60
2013,04,26,02,41,4.60
2013,04,26,02,42,4.60
2013,04,26,02,43,4.60
2013,04,26,02,44,4.60
2013,04,26,02,45,4.60
2013,04,26,02,46,4.80
2013,04,26,02,47,4.80
2013,04,26,02,48,4.80
2013,04,26,02,49,4.80
2013,04,26,02,50,4.80
2013,04,26,02,51,4.80
2013,04,26,02,52,4.80
2013,04,26,02,53,4.80
2013,04,26,02,54,4.80
2013,04,26,02,55,4.80
2013,04,26,02,56,4.80
2013,04,26,02,57,4.80
2013,04,26,02,58,4.80
2013,04,26,02,59,4.80
2013,04,26,03,00,4.80
2013,04,26,03,01,4.30
2013,04,26,03,02,4.30
2013,04,26,03,03,4.30
2013,04,26,03,04,4.30
2013,04,26,03,05,4.30
2013,04,26,03,06,4.30
2013,04,26,03,07,4.30
2013,04,26,03,08,4.30
2013,04,26,03,09,4.30
2013,04,26,03,10,4.30
2013,04,26,03,11,4.30
2013,04,26,03,12,4.30
2013,04,26,03,13,4.30
2013,04,26,03,14,4.30
2013,04,26,03,15,4.30
2013,04,26,03,16,5.00
2013,04,26,03,17,5.00
2013,04,26,03,18,5.00
2013,04,26,03,19,5.00
2013,04,26,03,20,5.00
2013,04,26,03,21,5.00
2013,04,26,03,22,5.00
2013,04,26,03,23,5.00
2013,04,26,03,24,5.00
2013,04,26,03,25,5.00
2013,04,26,03,26,5.00
2013,04,26,03,27,5.00
2013,04,26,03,28,5.00
2013,04,26,03,29,5.00
2013,04,26,03,30,5.00
2013,04,26,03,31,4.30
2013,04,26,03,32,4.30
2013,04,26,03,33,4.30
2013,04,26,03,34,4.30
2013,04,26,03,35,4.30
2013,04,26,03,36,4.30
2013,04,26,03,37,4.30
2013,04,26,03,38,4.30
2013,04,26,03,39,4.30
2013,04,26,03,40,4.30
2013,04,26,03,41,4.30
2013,04,26,03,42,4.30
2013,04,26,03,43,4.30
2013,04,26,03,44,4.30
2013,04,26,03,45,4.30
2013,04,26,03,46,4.30
2013,04,26,03,47,3.90
2013,04,26,03,48,3.90
2013,04,26,03,49,3.90
2013,04,26,03,50,3.90
2013,04,26,03,51,3.90
2013,04,26,03,52,3.90
2013,04,26,03,53,3.90
2013,04,26,03,54,3.90
2013,04,26,03,55,3.90
2013,04,26,03,56,3.90
2013,04,26,03,57,3.90
2013,04,26,03,58,3.90
2013,04,26,03,59,3.90
2013,04,26,04,00,3.90
2013,04,26,04,01,4.30
2013,04,26,04,02,4.30
2013,04,26,04,03,4.30
2013,04,26,04,04,4.30
2013,04,26,04,05,4.30
2013,04,26,04,06,4.30
2013,04,26,04,07,4.30
2013,04,26,04,08,4.30
2013,04,26,04,09,4.30
2013,04,26,04,10,4.30
2013,04,26,04,11,4.30
2013,04,26,04,12,4.30
2013,04,26,04,13,4.30
2013,04,26,04,14,4.30
2013,04,26,04,15,4.30
2013,04,26,04,16,3.90
2013,04,26,04,17,3.90
2013,04,26,04,18,3.90
2013,04,26,04,19,3.90
2013,04,26,04,20,3.90
2013,04,26,04,21,3.90
2013,04,26,04,22,3.90
2013,04,26,04,23,3.90
2013,04,26,04,24,3.90
2013,04,26,04,25,3.90
2013,04,26,04,26,3.90
2013,04,26,04,27,3.90
2013,04,26,04,28,3.90
2013,04,26,04,29,3.90
2013,04,26,04,30,3.90
2013,04,26,04,31,4.10
2013,04,26,04,32,4.10
2013,04,26,04,33,4.10
2013,04,26,04,34,4.10
2013,04,26,04,35,4.10
2013,04,26,04,36,4.10
2013,04,26,04,37,4.10
2013,04,26,04,38,4.10
2013,04,26,04,39,4.10
2013,04,26,04,40,4.10
2013,04,26,04,41,4.10
2013,04,26,04,42,4.10
2013,04,26,04,43,4.10
2013,04,26,04,44,4.10
2013,04,26,04,45,4.10
2013,04,26,04,46,3.80
2013,04,26,04,47,3.80
2013,04,26,04,48,3.80
2013,04,26,04,49,3.80
2013,04,26,04,50,3.80
2013,04,26,04,51,3.80
2013,04,26,04,52,3.80
2013,04,26,04,53,3.80
2013,04,26,04,54,3.80
2013,04,26,04,55,3.80
2013,04,26,04,56,3.80
2013,04,26,04,57,3.80
2013,04,26,04,58,3.80
2013,04,26,04,59,3.80
2013,04,26,05,00,3.80
2013,04,26,05,01,3.80
2013,04,26,05,02,3.90
2013,04,26,05,03,3.90
2013,04,26,05,04,3.90
2013,04,26,05,05,3.90
2013,04,26,05,06,3.90
2013,04,26,05,07,3.90
2013,04,26,05,08,3.90
2013,04,26,05,09,3.90
2013,04,26,05,10,3.90
2013,04,26,05,11,3.90
2013,04,26,05,12,3.90
2013,04,26,05,13,3.90
2013,04,26,05,14,3.90
2013,04,26,05,15,3.90
2013,04,26,05,16,4.60
2013,04,26,05,17,4.60
2013,04,26,05,18,4.60
2013,04,26,05,19,4.60
2013,04,26,05,20,4.60
2013,04,26,05,21,4.60
2013,04,26,05,22,4.60
2013,04,26,05,23,4.60
2013,04,26,05,24,4.60
2013,04,26,05,25,4.60
2013,04,26,05,26,4.60
2013,04,26,05,27,4.60
2013,04,26,05,28,4.60
2013,04,26,05,29,4.60
2013,04,26,05,30,4.60
2013,04,26,05,31,5.00
2013,04,26,05,32,5.00
2013,04,26,05,33,5.00
2013,04,26,05,34,5.00
2013,04,26,05,35,5.00
2013,04,26,05,36,5.00
2013,04,26,05,37,5.00
2013,04,26,05,38,5.00
2013,04,26,05,39,5.00
2013,04,26,05,40,5.00
2013,04,26,05,41,5.00
2013,04,26,05,42,5.00
2013,04,26,05,43,5.00
2013,04,26,05,44,5.00
2013,04,26,05,45,5.00
2013,04,26,05,46,7.10
2013,04,26,05,47,7.10
2013,04,26,05,48,7.10
2013,04,26,05,49,7.10
2013,04,26,05,50,7.10
2013,04,26,05,51,7.10
2013,04,26,05,52,7.10
2013,04,26,05,53,7.10
2013,04,26,05,54,7.10
2013,04,26,05,55,7.10
2013,04,26,05,56,7.10
2013,04,26,05,57,7.10
2013,04,26,05,58,7.10
2013,04,26,05,59,7.10
2013,04,26,06,00,7.10
2013,04,26,06,01,6.10
2013,04,26,06,02,6.10
2013,04,26,06,03,6.10
2013,04,26,06,04,6.10
2013,04,26,06,05,6.10
2013,04,26,06,06,6.10
2013,04,26,06,07,6.10
2013,04,26,06,08,6.10
2013,04,26,06,09,6.10
2013,04,26,06,10,6.10
2013,04,26,06,11,6.10
2013,04,26,06,12,6.10
2013,04,26,06,13,6.10
2013,04,26,06,14,6.10
2013,04,26,06,15,6.10
2013,04,26,06,16,5.60
2013,04,26,06,17,5.60
2013,04,26,06,18,5.60
2013,04,26,06,19,5.60
2013,04,26,06,20,5.60
2013,04,26,06,21,5.60
2013,04,26,06,22,5.60
2013,04,26,06,23,5.60
2013,04,26,06,24,5.60
2013,04,26,06,25,5.60
2013,04,26,06,26,5.60
2013,04,26,06,27,5.60
2013,04,26,06,28,5.60
2013,04,26,06,29,5.60
2013,04,26,06,30,5.60
2013,04,26,06,31,5.40
2013,04,26,06,32,5.40
2013,04,26,06,33,5.40
2013,04,26,06,34,5.40
2013,04,26,06,35,5.40
2013,04,26,06,36,5.40
2013,04,26,06,37,5.40
2013,04,26,06,38,5.40
2013,04,26,06,39,5.40
2013,04,26,06,40,5.40
2013,04,26,06,41,5.40
2013,04,26,06,42,5.40
2013,04,26,06,43,5.40
2013,04,26,06,44,5.40
2013,04,26,06,45,5.40
2013,04,26,06,46,5.70
2013,04,26,06,47,5.70
2013,04,26,06,48,5.70
2013,04,26,06,49,5.70
2013,04,26,06,50,5.70
2013,04,26,06,51,5.70
2013,04,26,06,52,5.70
2013,04,26,06,53,5.70
2013,04,26,06,54,5.70
2013,04,26,06,55,5.70
2013,04,26,06,56,5.70
2013,04,26,06,57,5.70
2013,04,26,06,58,5.70
2013,04,26,06,59,5.70
2013,04,26,07,00,5.70
2013,04,26,07,01,6.20
2013,04,26,07,02,6.20
2013,04,26,07,03,6.20
2013,04,26,07,04,6.20
2013,04,26,07,05,6.20
2013,04,26,07,06,6.20
2013,04,26,07,07,6.20
2013,04,26,07,08,6.20
2013,04,26,07,09,6.20
2013,04,26,07,10,6.20
2013,04,26,07,11,6.20
2013,04,26,07,12,6.20
2013,04,26,07,13,6.20
2013,04,26,07,14,6.20
2013,04,26,07,15,6.20
2013,04,26,07,16,5.80
2013,04,26,07,17,5.80
2013,04,26,07,18,5.80
2013,04,26,07,19,5.80
2013,04,26,07,20,5.80
2013,04,26,07,21,5.80
2013,04,26,07,22,5.80
2013,04,26,07,23,5.80
2013,04,26,07,24,5.80
2013,04,26,07,25,5.80
2013,04,26,07,26,5.80
2013,04,26,07,27,5.80
2013,04,26,07,28,5.80
2013,04,26,07,29,5.80
2013,04,26,07,30,5.80
2013,04,26,07,31,5.80
2013,04,26,07,32,5.80
2013,04,26,07,33,6.90
2013,04,26,07,34,6.90
2013,04,26,07,35,6.90
2013,04,26,07,36,6.90
2013,04,26,07,37,6.90
2013,04,26,07,38,6.90
2013,04,26,07,39,6.90
2013,04,26,07,40,6.90
2013,04,26,07,41,6.90
2013,04,26,07,42,6.90
2013,04,26,07,43,6.90
2013,04,26,07,44,6.90
2013,04,26,07,45,6.90
2013,04,26,07,46,5.30
2013,04,26,07,47,5.30
2013,04,26,07,48,5.30
2013,04,26,07,49,5.30
2013,04,26,07,50,5.30
2013,04,26,07,51,5.30
2013,04,26,07,52,5.30
2013,04,26,07,53,5.30
2013,04,26,07,54,5.30
2013,04,26,07,55,5.30
2013,04,26,07,56,5.30
2013,04,26,07,57,5.30
2013,04,26,07,58,5.30
2013,04,26,07,59,5.30
2013,04,26,08,00,5.30
2013,04,26,08,01,5.90
2013,04,26,08,02,5.90
2013,04,26,08,03,5.90
2013,04,26,08,04,5.90
2013,04,26,08,05,5.90
2013,04,26,08,06,5.90
2013,04,26,08,07,5.90
2013,04,26,08,08,5.90
2013,04,26,08,09,5.90
2013,04,26,08,10,5.90
2013,04,26,08,11,5.90
2013,04,26,08,12,5.90
2013,04,26,08,13,5.90
2013,04,26,08,14,5.90
2013,04,26,08,15,5.90
2013,04,26,08,16,6.30
2013,04,26,08,17,6.30
2013,04,26,08,18,6.30
2013,04,26,08,19,6.30
2013,04,26,08,20,6.30
2013,04,26,08,21,6.30
2013,04,26,08,22,6.30
2013,04,26,08,23,6.30
2013,04,26,08,24,6.30
2013,04,26,08,25,6.30
2013,04,26,08,26,6.30
2013,04,26,08,27,6.30
2013,04,26,08,28,6.30
2013,04,26,08,29,6.30
2013,04,26,08,30,6.30
2013,04,26,08,31,6.40
2013,04,26,08,32,6.40
2013,04,26,08,33,6.40
2013,04,26,08,34,6.40
2013,04,26,08,35,6.40
2013,04,26,08,36,6.40
2013,04,26,08,37,6.40
2013,04,26,08,38,6.40
2013,04,26,08,39,6.40
2013,04,26,08,40,6.40
2013,04,26,08,41,6.40
2013,04,26,08,42,6.40
2013,04,26,08,43,6.40
2013,04,26,08,44,6.40
2013,04,26,08,45,6.40
2013,04,26,08,46,5.80
2013,04,26,08,47,7.40
2013,04,26,08,48,7.40
2013,04,26,08,49,7.40
2013,04,26,08,50,7.40
2013,04,26,08,51,7.40
2013,04,26,08,52,7.40
2013,04,26,08,53,7.40
2013,04,26,08,54,7.40
2013,04,26,08,55,7.40
2013,04,26,08,56,7.40
2013,04,26,08,57,7.40
2013,04,26,08,58,7.40
2013,04,26,08,59,7.40
2013,04,26,09,00,7.40
2013,04,26,09,01,7.60
2013,04,26,09,02,7.60
2013,04,26,09,03,7.60
2013,04,26,09,04,7.60
2013,04,26,09,05,7.60
2013,04,26,09,06,7.60
2013,04,26,09,07,7.60
2013,04,26,09,08,7.60
2013,04,26,09,09,7.60
2013,04,26,09,10,7.60
2013,04,26,09,11,7.60
2013,04,26,09,12,7.60
2013,04,26,09,13,7.60
2013,04,26,09,14,7.60
2013,04,26,09,15,7.60
2013,04,26,09,16,8.20
2013,04,26,09,17,8.20
2013,04,26,09,18,8.20
2013,04,26,09,19,8.20
2013,04,26,09,20,8.20
2013,04,26,09,21,8.20
2013,04,26,09,22,8.20
2013,04,26,09,23,8.20
2013,04,26,09,24,8.20
2013,04,26,09,25,8.20
2013,04,26,09,26,8.20
2013,04,26,09,27,8.20
2013,04,26,09,28,8.20
2013,04,26,09,29,8.20
2013,04,26,09,30,8.20
2013,04,26,09,31,8.80
2013,04,26,09,32,8.80
2013,04,26,09,33,8.80
2013,04,26,09,34,8.80
2013,04,26,09,35,8.80
2013,04,26,09,36,8.80
2013,04,26,09,37,8.80
2013,04,26,09,38,8.80
2013,04,26,09,39,8.80
2013,04,26,09,40,8.80
2013,04,26,09,41,8.80
2013,04,26,09,42,8.80
2013,04,26,09,43,8.80
2013,04,26,09,44,8.80
2013,04,26,09,45,8.80
2013,04,26,09,46,8.70
2013,04,26,09,47,8.70
2013,04,26,09,48,8.70
2013,04,26,09,49,8.70
2013,04,26,09,50,8.70
2013,04,26,09,51,8.70
2013,04,26,09,52,8.70
2013,04,26,09,53,8.70
2013,04,26,09,54,8.70
2013,04,26,09,55,8.70
2013,04,26,09,56,8.70
2013,04,26,09,57,8.70
2013,04,26,09,58,8.70
2013,04,26,09,59,8.70
2013,04,26,10,00,8.70
2013,04,26,10,01,8.70
2013,04,26,10,02,8.10
2013,04,26,10,03,8.10
2013,04,26,10,04,8.10
2013,04,26,10,05,8.10
2013,04,26,10,06,8.10
2013,04,26,10,07,8.10
2013,04,26,10,08,8.10
2013,04,26,10,09,8.10
2013,04,26,10,10,8.10
2013,04,26,10,11,8.10
2013,04,26,10,12,8.10
2013,04,26,10,13,8.10
2013,04,26,10,14,8.10
2013,04,26,10,15,8.10
2013,04,26,10,16,8.60
2013,04,26,10,17,8.60
2013,04,26,10,18,8.60
2013,04,26,10,19,8.60
2013,04,26,10,20,8.60
2013,04,26,10,21,8.60
2013,04,26,10,22,8.60
2013,04,26,10,23,8.60
2013,04,26,10,24,8.60
2013,04,26,10,25,8.60
2013,04,26,10,26,8.60
2013,04,26,10,27,8.60
2013,04,26,10,28,8.60
2013,04,26,10,29,8.60
2013,04,26,10,30,8.60
2013,04,26,10,31,8.60
2013,04,26,10,32,8.60
2013,04,26,10,33,8.60
2013,04,26,10,34,8.60
2013,04,26,10,35,8.60
2013,04,26,10,36,8.60
2013,04,26,10,37,8.60
2013,04,26,10,38,8.60
2013,04,26,10,39,8.60
2013,04,26,10,40,8.60
2013,04,26,10,41,8.60
2013,04,26,10,42,8.60
2013,04,26,10,43,8.60
2013,04,26,10,44,8.60
2013,04,26,10,45,8.60
2013,04,26,10,46,9.30
2013,04,26,10,47,9.30
2013,04,26,10,48,9.30
2013,04,26,10,49,9.30
2013,04,26,10,50,9.30
2013,04,26,10,51,9.30
2013,04,26,10,52,9.30
2013,04,26,10,53,9.30
2013,04,26,10,54,9.30
2013,04,26,10,55,9.30
2013,04,26,10,56,9.30
2013,04,26,10,57,9.30
2013,04,26,10,58,9.30
2013,04,26,10,59,9.30
2013,04,26,11,00,9.30
2013,04,26,11,01,9.80
2013,04,26,11,02,9.80
2013,04,26,11,03,9.80
2013,04,26,11,04,9.80
2013,04,26,11,05,9.80
2013,04,26,11,06,9.80
2013,04,26,11,07,9.80
2013,04,26,11,08,9.80
2013,04,26,11,09,9.80
2013,04,26,11,10,9.80
2013,04,26,11,11,9.80
2013,04,26,11,12,9.80
2013,04,26,11,13,9.80
2013,04,26,11,14,9.80
2013,04,26,11,15,9.80
2013,04,26,11,16,10.50
2013,04,26,11,17,10.50
2013,04,26,11,18,10.50
2013,04,26,11,19,10.50
2013,04,26,11,20,10.50
2013,04,26,11,21,10.50
2013,04,26,11,22,10.50
2013,04,26,11,23,10.50
2013,04,26,11,24,10.50
2013,04,26,11,25,10.50
2013,04,26,11,26,10.50
2013,04,26,11,27,10.50
2013,04,26,11,28,10.50
2013,04,26,11,29,10.50
2013,04,26,11,30,10.50
2013,04,26,11,31,10.60
2013,04,26,11,32,10.60
2013,04,26,11,33,10.60
2013,04,26,11,34,10.60
2013,04,26,11,35,10.60
2013,04,26,11,36,10.60
2013,04,26,11,37,10.60
2013,04,26,11,38,10.60
2013,04,26,11,39,10.60
2013,04,26,11,40,10.60
2013,04,26,11,41,10.60
2013,04,26,11,42,10.60
2013,04,26,11,43,10.60
2013,04,26,11,44,10.60
2013,04,26,11,45,10.60
2013,04,26,11,46,10.40
2013,04,26,11,47,10.40
2013,04,26,11,48,10.40
2013,04,26,11,49,10.40
2013,04,26,11,50,10.40
2013,04,26,11,51,10.40
2013,04,26,11,52,10.40
2013,04,26,11,53,10.40
2013,04,26,11,54,10.40
2013,04,26,11,55,10.40
2013,04,26,11,56,10.40
2013,04,26,11,57,10.40
2013,04,26,11,58,10.40
2013,04,26,11,59,10.40
2013,04,26,12,00,10.40
2013,04,26,12,01,10.20
2013,04,26,12,02,10.20
2013,04,26,12,03,10.20
2013,04,26,12,04,10.20
2013,04,26,12,05,10.20
2013,04,26,12,06,10.20
2013,04,26,12,07,10.20
2013,04,26,12,08,10.20
2013,04,26,12,09,10.20
2013,04,26,12,10,10.20
2013,04,26,12,11,10.20
2013,04,26,12,12,10.20
2013,04,26,12,13,10.20
2013,04,26,12,14,10.20
2013,04,26,12,15,10.20
2013,04,26,12,16,9.90
2013,04,26,12,17,9.90
2013,04,26,12,18,9.90
2013,04,26,12,19,9.90
2013,04,26,12,20,9.90
2013,04,26,12,21,9.90
2013,04,26,12,22,9.90
2013,04,26,12,23,9.90
2013,04,26,12,24,9.90
2013,04,26,12,25,9.90
2013,04,26,12,26,9.90
2013,04,26,12,27,9.90
2013,04,26,12,28,9.90
2013,04,26,12,29,9.90
2013,04,26,12,30,9.90
2013,04,26,12,31,9.90
2013,04,26,12,32,9.90
2013,04,26,12,33,9.90
2013,04,26,12,34,9.90
2013,04,26,12,35,9.90
2013,04,26,12,36,9.90
2013,04,26,12,37,9.90
2013,04,26,12,38,9.90
2013,04,26,12,39,9.90
2013,04,26,12,40,9.90
2013,04,26,12,41,9.90
2013,04,26,12,42,9.90
2013,04,26,12,43,9.90
2013,04,26,12,44,9.90
2013,04,26,12,45,9.90
2013,04,26,12,46,10.10
2013,04,26,12,47,10.10
2013,04,26,12,48,10.10
2013,04,26,12,49,10.10
2013,04,26,12,50,10.10
2013,04,26,12,51,10.10
2013,04,26,12,52,10.10
2013,04,26,12,53,10.10
2013,04,26,12,54,10.10
2013,04,26,12,55,10.10
2013,04,26,12,56,10.10
2013,04,26,12,57,10.10
2013,04,26,12,58,10.10
2013,04,26,12,59,10.10
2013,04,26,13,00,10.10
2013,04,26,13,01,7.10
2013,04,26,13,02,9.60
2013,04,26,13,03,9.60
2013,04,26,13,04,9.60
2013,04,26,13,05,9.60
2013,04,26,13,06,9.60
2013,04,26,13,07,9.60
2013,04,26,13,08,9.60
2013,04,26,13,09,9.60
2013,04,26,13,10,9.60
2013,04,26,13,11,9.60
2013,04,26,13,12,9.60
2013,04,26,13,13,9.60
2013,04,26,13,14,9.60
2013,04,26,13,15,9.60
2013,04,26,13,16,9.60
2013,04,26,13,17,9.60
2013,04,26,13,18,9.60
2013,04,26,13,19,9.60
2013,04,26,13,20,9.60
2013,04,26,13,21,9.60
2013,04,26,13,22,9.60
2013,04,26,13,23,9.60
2013,04,26,13,24,9.60
2013,04,26,13,25,9.60
2013,04,26,13,26,9.60
2013,04,26,13,27,9.60
2013,04,26,13,28,9.60
2013,04,26,13,29,9.60
2013,04,26,13,30,9.60
2013,04,26,13,31,10.20
2013,04,26,13,32,10.20
2013,04,26,13,33,10.20
2013,04,26,13,34,10.20
2013,04,26,13,35,10.20
2013,04,26,13,36,10.20
2013,04,26,13,37,10.20
2013,04,26,13,38,10.20
2013,04,26,13,39,10.20
2013,04,26,13,40,10.20
2013,04,26,13,41,10.20
2013,04,26,13,42,10.20
2013,04,26,13,43,10.20
2013,04,26,13,44,10.20
2013,04,26,13,45,10.20
2013,04,26,13,46,10.20
2013,04,26,13,47,11.10
2013,04,26,13,48,11.10
2013,04,26,13,49,11.10
2013,04,26,13,50,11.10
2013,04,26,13,51,11.10
2013,04,26,13,52,11.10
2013,04,26,13,53,11.10
2013,04,26,13,54,11.10
2013,04,26,13,55,11.10
2013,04,26,13,56,11.10
2013,04,26,13,57,11.10
2013,04,26,13,58,11.10
2013,04,26,13,59,11.10
2013,04,26,14,00,11.10
2013,04,26,14,01,11.00
2013,04,26,14,02,11.00
2013,04,26,14,03,11.00
2013,04,26,14,04,11.00
2013,04,26,14,05,11.00
2013,04,26,14,06,11.00
2013,04,26,14,07,11.00
2013,04,26,14,08,11.00
2013,04,26,14,09,11.00
2013,04,26,14,10,11.00
2013,04,26,14,11,11.00
2013,04,26,14,12,11.00
2013,04,26,14,13,11.00
2013,04,26,14,14,11.00
2013,04,26,14,15,11.00
2013,04,26,14,16,11.00
2013,04,26,14,17,10.60
2013,04,26,14,18,10.60
2013,04,26,14,19,10.60
2013,04,26,14,20,10.60
2013,04,26,14,21,10.60
2013,04,26,14,22,10.60
2013,04,26,14,23,10.60
2013,04,26,14,24,10.60
2013,04,26,14,25,10.60
2013,04,26,14,26,10.60
2013,04,26,14,27,10.60
2013,04,26,14,28,10.60
2013,04,26,14,29,10.60
2013,04,26,14,30,10.60
2013,04,26,14,31,10.60
2013,04,26,14,32,11.10
2013,04,26,14,33,11.10
2013,04,26,14,34,11.10
2013,04,26,14,35,11.10
2013,04,26,14,36,11.10
2013,04,26,14,37,11.10
2013,04,26,14,38,11.10
2013,04,26,14,39,11.10
2013,04,26,14,40,11.10
2013,04,26,14,41,11.10
2013,04,26,14,42,11.10
2013,04,26,14,43,11.10
2013,04,26,14,44,11.10
2013,04,26,14,45,11.10
2013,04,26,14,46,10.90
2013,04,26,14,47,10.90
2013,04,26,14,48,10.90
2013,04,26,14,49,10.90
2013,04,26,14,50,10.90
2013,04,26,14,51,10.90
2013,04,26,14,52,10.90
2013,04,26,14,53,10.90
2013,04,26,14,54,10.90
2013,04,26,14,55,10.90
2013,04,26,14,56,10.90
2013,04,26,14,57,10.90
2013,04,26,14,58,10.90
2013,04,26,14,59,10.90
2013,04,26,15,00,10.90
2013,04,26,15,01,10.70
2013,04,26,15,02,10.70
2013,04,26,15,03,10.70
2013,04,26,15,04,10.70
2013,04,26,15,05,10.70
2013,04,26,15,06,10.70
2013,04,26,15,07,10.70
2013,04,26,15,08,10.70
2013,04,26,15,09,10.70
2013,04,26,15,10,10.70
2013,04,26,15,11,10.70
2013,04,26,15,12,10.70
2013,04,26,15,13,10.70
2013,04,26,15,14,10.70
2013,04,26,15,15,10.70
2013,04,26,15,16,10.60
2013,04,26,15,17,10.60
2013,04,26,15,18,10.60
2013,04,26,15,19,10.60
2013,04,26,15,20,10.60
2013,04,26,15,21,10.60
2013,04,26,15,22,10.60
2013,04,26,15,23,10.60
2013,04,26,15,24,10.60
2013,04,26,15,25,10.60
2013,04,26,15,26,10.60
2013,04,26,15,27,10.60
2013,04,26,15,28,10.60
2013,04,26,15,29,10.60
2013,04,26,15,30,10.60
2013,04,26,15,32,10.30
2013,04,26,15,33,10.30
2013,04,26,15,34,10.30
2013,04,26,15,35,10.30
2013,04,26,15,36,10.30
2013,04,26,15,37,10.30
2013,04,26,15,38,10.30
2013,04,26,15,39,10.30
2013,04,26,15,40,10.30
2013,04,26,15,41,10.30
2013,04,26,15,42,10.30
2013,04,26,15,43,10.30
2013,04,26,15,44,10.30
2013,04,26,15,45,10.30
2013,04,26,15,46,10.10
2013,04,26,15,47,10.10
2013,04,26,15,48,10.10
2013,04,26,15,49,10.10
2013,04,26,15,50,10.10
2013,04,26,15,51,10.10
2013,04,26,15,52,10.10
2013,04,26,15,53,10.10
2013,04,26,15,54,10.10
2013,04,26,15,55,10.10
2013,04,26,15,56,10.10
2013,04,26,15,57,10.10
2013,04,26,15,58,10.10
2013,04,26,15,59,10.10
2013,04,26,16,00,10.10
2013,04,26,16,01,9.90
2013,04,26,16,02,9.90
2013,04,26,16,03,9.90
2013,04,26,16,04,9.90
2013,04,26,16,05,9.90
2013,04,26,16,06,9.90
2013,04,26,16,07,9.90
2013,04,26,16,08,9.90
2013,04,26,16,09,9.90
2013,04,26,16,10,9.90
2013,04,26,16,11,9.90
2013,04,26,16,12,9.90
2013,04,26,16,13,9.90
2013,04,26,16,14,9.90
2013,04,26,16,15,9.90
2013,04,26,16,16,9.90
2013,04,26,16,17,9.40
2013,04,26,16,18,9.40
2013,04,26,16,19,9.40
2013,04,26,16,20,9.40
2013,04,26,16,21,9.40
2013,04,26,16,22,9.40
2013,04,26,16,23,9.40
2013,04,26,16,24,9.40
2013,04,26,16,25,9.40
2013,04,26,16,26,9.40
2013,04,26,16,27,9.40
2013,04,26,16,28,9.40
2013,04,26,16,29,9.40
2013,04,26,16,30,9.40
2013,04,26,16,31,9.60
2013,04,26,16,32,9.60
2013,04,26,16,33,9.60
2013,04,26,16,34,9.60
2013,04,26,16,35,9.60
2013,04,26,16,36,9.60
2013,04,26,16,37,9.60
2013,04,26,16,38,9.60
2013,04,26,16,39,9.60
2013,04,26,16,40,9.60
2013,04,26,16,41,9.60
2013,04,26,16,42,9.60
2013,04,26,16,43,9.60
2013,04,26,16,44,9.60
2013,04,26,16,45,9.60
2013,04,26,16,46,9.60
2013,04,26,16,47,9.60
2013,04,26,16,48,9.60
2013,04,26,16,49,9.60
2013,04,26,16,50,9.60
2013,04,26,16,51,9.60
2013,04,26,16,52,9.60
2013,04,26,16,53,9.60
2013,04,26,16,54,9.60
2013,04,26,16,55,9.60
2013,04,26,16,56,9.60
2013,04,26,16,57,9.60
2013,04,26,16,58,9.60
2013,04,26,16,59,9.60
2013,04,26,17,00,9.60
2013,04,26,17,02,9.40
2013,04,26,17,03,9.40
2013,04,26,17,04,9.40
2013,04,26,17,05,9.40
2013,04,26,17,06,9.40
2013,04,26,17,07,9.40
2013,04,26,17,08,9.40
2013,04,26,17,09,9.40
2013,04,26,17,10,9.40
2013,04,26,17,11,9.40
2013,04,26,17,12,9.40
2013,04,26,17,13,9.40
2013,04,26,17,14,9.40
2013,04,26,17,15,9.40
2013,04,26,17,16,9.40
2013,04,26,17,17,9.40
2013,04,26,17,18,9.40
2013,04,26,17,19,9.40
2013,04,26,17,20,9.40
2013,04,26,17,21,9.40
2013,04,26,17,22,9.40
2013,04,26,17,23,9.40
2013,04,26,17,24,9.40
2013,04,26,17,25,9.40
2013,04,26,17,26,9.40
2013,04,26,17,27,9.40
2013,04,26,17,28,9.40
2013,04,26,17,29,9.40
2013,04,26,17,30,9.40
2013,04,26,17,31,9.20
2013,04,26,17,32,9.20
2013,04,26,17,33,9.20
2013,04,26,17,34,9.20
2013,04,26,17,35,9.20
2013,04,26,17,36,9.20
2013,04,26,17,37,9.20
2013,04,26,17,38,9.20
2013,04,26,17,39,9.20
2013,04,26,17,40,9.20
2013,04,26,17,41,9.20
2013,04,26,17,42,9.20
2013,04,26,17,43,9.20
2013,04,26,17,44,9.20
2013,04,26,17,45,9.20
2013,04,26,17,46,8.50
2013,04,26,17,47,8.50
2013,04,26,17,48,8.50
2013,04,26,17,49,8.50
2013,04,26,17,50,8.50
2013,04,26,17,51,8.50
2013,04,26,17,52,8.50
2013,04,26,17,53,8.50
2013,04,26,17,54,8.50
2013,04,26,17,55,8.50
2013,04,26,17,56,8.50
2013,04,26,17,57,8.50
2013,04,26,17,58,8.50
2013,04,26,17,59,8.50